Phnom Penh, Cambodia

6:25 PM ICT on February 21, 2017 (GMT +0700)
Pochentong International

Weather History for VDPP - October, 2012

Change the Weather History Date:

Saturday, October 6, 2012

  Actual Average Record
Temperature  
Mean Temperature 80 °F -  
Max Temperature 86 °F 84 °F 93 °F (2011)
Min Temperature 75 °F 76 °F 73 °F (2004)
Cooling Degree Days 16    
Growing Degree Days 30 (Base 50)    
Moisture  
Dew Point 74 °F    
Average Humidity 82    
Maximum Humidity 89    
Minimum Humidity 66    
Precipitation  
Precipitation 0.00 in - - ()
Sea Level Pressure  
Sea Level Pressure 29.82 in    
Wind  
Wind Speed 6 mph ()    
Max Wind Speed 22 mph    
Max Gust Speed -    
Visibility 5.6 miles    
Events Rain , Thunderstorm    
Averages and records for this station are not official NWS values.
T = Trace of Precipitation, MM = Missing Value Source: Averaged Metar Reports

Daily Weather History Graph

Daily Weather History Graph

Search for Another Location

Airport or City:

Trip Planner

Search our weather history database for the weather conditions in past years. The results will help you decide how hot, cold, wet, or windy it might be!

Date:

Astronomy

Oct. 06, 2012 Rise Set
Actual Time 5:49 AM ICT 5:47 PM ICT
Civil Twilight 5:28 AM ICT 6:08 PM ICT
Nautical Twilight 5:03 AM ICT 6:33 PM ICT
Astronomical Twilight 4:39 AM ICT 6:57 PM ICT
Moon 10:20 PM ICT (10/6) 10:32 AM ICT (10/6)
Length of Visible Light 12h 40m
Length of Day
11h 58m
Waning Gibbous, 69% of the Moon is Illuminated
Oct 6
Waning Gibbous
Oct 8
Last Quarter
Oct 15
New
Oct 22
First Quarter
Oct 30
Full

Hourly Weather History & Observations

Time (ICT) Temp. Heat Index Dew Point Humidity Pressure Visibility Wind Dir Wind Speed Gust Speed Precip Events Conditions
6:00 AM 78.8 °F - 75.2 °F 89% 29.80 in 6.2 mi NNW 2.3 mph - N/A   Scattered Clouds
7:00 AM 79 °F - 76 °F 87% 29.83 in 6 mi Calm Calm - -   Partly Cloudy
7:00 AM 80.6 °F 86.2 °F 75.2 °F 84% 29.83 in 5.6 mi NNW 6.9 mph - N/A   Scattered Clouds
7:30 AM 80.6 °F 85.4 °F 73.4 °F 79% 29.86 in 6.2 mi NNW 4.6 mph - N/A   Scattered Clouds
8:00 AM 82.4 °F 88.2 °F 73.4 °F 74% 29.86 in 6.2 mi NNW 6.9 mph - N/A   Scattered Clouds
8:30 AM 84.2 °F 90.9 °F 73.4 °F 70% 29.86 in 6.2 mi NW 3.5 mph - N/A   Scattered Clouds
9:00 AM 84.2 °F 92.3 °F 75.2 °F 74% 29.86 in 6.2 mi NNW 11.5 mph - N/A   Scattered Clouds
9:30 AM 86.0 °F 95.1 °F 75.2 °F 70% 29.86 in 6.2 mi North 9.2 mph - N/A   Scattered Clouds
10:00 AM 86.0 °F 95.1 °F 75.2 °F 70% 29.86 in 6.2 mi NNW 13.8 mph - N/A   Scattered Clouds
10:30 AM 86.0 °F 93.4 °F 73.4 °F 66% 29.86 in 6.2 mi NNW 10.4 mph - N/A   Mostly Cloudy
11:00 AM 86.0 °F 93.4 °F 73.4 °F 66% 29.86 in 6.2 mi NNW 11.5 mph - N/A   Mostly Cloudy
11:30 AM 80.6 °F 86.2 °F 75.2 °F 84% 29.83 in 5.6 mi North 21.9 mph - N/A Rain Light Rain
12:00 PM 77.0 °F - 71.6 °F 83% 29.86 in 2.5 mi NW 10.4 mph - N/A Rain , Thunderstorm Thunderstorms and Rain
12:30 PM 78.8 °F - 73.4 °F 83% 29.80 in 5.6 mi North 4.6 mph - N/A Rain Light Rain
1:00 PM 80.6 °F 86.2 °F 75.2 °F 84% 29.80 in 5.6 mi NNW 5.8 mph - N/A Rain Light Rain
1:30 PM 77.0 °F - 71.6 °F 83% 29.77 in 5.0 mi North 11.5 mph - N/A Rain Light Rain
2:00 PM 75.2 °F - 71.6 °F 89% 29.77 in 5.0 mi NNE 11.5 mph - N/A Rain Light Rain
2:30 PM 77.0 °F - 71.6 °F 83% 29.77 in 5.0 mi NNW 2.3 mph - N/A Rain Light Rain
3:00 PM 77.0 °F - 71.6 °F 83% 29.77 in 5.0 mi WNW 2.3 mph - N/A Rain Light Rain
3:30 PM 78.8 °F - 73.4 °F 83% 29.74 in 5.6 mi WSW 2.3 mph - N/A Rain Light Rain
4:00 PM 78.8 °F - 73.4 °F 83% 29.74 in 5.6 mi SSW 4.6 mph - N/A Rain Light Rain
4:30 PM 78.8 °F - 73.4 °F 83% 29.77 in 5.6 mi SSW 5.8 mph - N/A Rain Light Rain
5:00 PM 78.8 °F - 75.2 °F 89% 29.77 in 5.6 mi SSW 9.2 mph - N/A Rain Light Rain
5:30 PM 78.8 °F - 73.4 °F 83% 29.77 in 5.6 mi SSW 8.1 mph - N/A Rain Light Rain
6:00 PM 78.8 °F - 73.4 °F 83% 29.80 in 5.6 mi SSW 6.9 mph - N/A Rain Light Rain
6:30 PM 78.8 °F - 75.2 °F 89% 29.80 in 5.6 mi SSW 9.2 mph - N/A Rain Light Rain
7:00 PM 78.8 °F - 75.2 °F 89% 29.80 in 5.6 mi SSW 10.4 mph - N/A   Mostly Cloudy
7:30 PM 78.8 °F - 75.2 °F 89% 29.80 in 5.6 mi SSW 11.5 mph - N/A   Mostly Cloudy
8:00 PM 78.8 °F - 73.4 °F 83% 29.83 in 5.6 mi WSW 8.1 mph - N/A   Mostly Cloudy
8:30 PM 78.8 °F - 73.4 °F 83% 29.83 in 5.6 mi SW 5.8 mph - N/A Rain Light Rain
9:00 PM 78.8 °F - 73.4 °F 83% 29.86 in - WSW 4.6 mph - N/A Rain Light Rain
9:30 PM 77.0 °F - 73.4 °F 89% 29.86 in 5.0 mi WNW 4.6 mph - N/A Rain Rain
10:00 PM 77.0 °F - 73.4 °F 89% 29.86 in 5.0 mi West 3.5 mph - N/A Rain Rain
10:30 PM 77.0 °F - 73.4 °F 89% 29.86 in 5.6 mi WSW 3.5 mph - N/A Rain Light Rain
11:00 PM 77.0 °F - 73.4 °F 89% 29.83 in 5.6 mi WSW 4.6 mph - N/A Rain Rain
11:30 PM 77.0 °F - 73.4 °F 89% 29.83 in 5.6 mi West 3.5 mph - N/A Rain Light Rain